GW6424 Weather Reports


time (UTC)temp
F
wind
direction
speed
knots
gust
knots
rain 1hr
in
rain 24hr
in
rain mn
in
humidity
%
barometer
mb
20260503220435 50 103 0.0 1.7 0.02 0.20 0.06 95 1015.5
20260503215935 50 217 0.0 0.0 0.02 0.20 0.06 95 1015.5
20260503215435 50 123 0.0 0.9 0.02 0.20 0.06 95 1015.3
20260503214935 50 123 0.0 0.9 0.02 0.20 0.06 95 1015.2
20260503214717 50 163 0.0 0.9 0.03 0.20 0.06 95 1015.1
20260503213934 50 163 0.9 0.9 0.03 0.20 0.06 95 1015.1
20260503213434 50 159 0.9 0.9 0.03 0.20 0.06 95 1015.1
20260503212938 50 171 0.0 0.9 0.03 0.20 0.05 95 1015.1
20260503212436 50 188 0.0 0.9 0.02 0.20 0.05 95 1015.0
20260503211935 50 166 0.0 0.9 0.02 0.20 0.05 94 1014.9
20260503211435 50 175 0.0 0.9 0.02 0.20 0.05 94 1014.9
20260503211220 50 153 0.0 0.9 0.02 0.20 0.04 94 1014.7
20260503210434 50 153 0.0 0.9 0.02 0.19 0.04 94 1014.7
20260503210013 50 162 0.0 0.9 0.01 0.18 0.03 94 1014.6
20260503205955 50 176 0.0 0.9 0.02 0.19 0.03 94 1014.7
20260503205237 50 134 0.0 0.9 0.01 0.18 0.03 94 1014.6
20260503204435 50 180 0.0 0.9 0.00 0.17 0.02 94 1014.6
20260503203936 51 184 0.9 0.9 0.00 0.17 0.02 94 1014.5
20260503203435 50 55 0.9 0.0 0.00 0.17 0.02 94 1014.4
20260503203217 50 108 0.0 0.9 0.00 0.17 0.02 94 1014.4
20260503202722 50 63 0.9 1.7 0.00 0.17 0.02 94 1014.3
20260503202229 50 116 0.9 1.7 0.00 0.17 0.02 94 1014.4
20260503201435 50 135 0.0 1.7 0.00 0.17 0.02 93 1014.3
20260503201215 50 140 0.0 0.0 0.00 0.17 0.02 93 1014.3
20260503200434 50 140 0.9 0.9 0.00 0.17 0.02 94 1014.3
20260503195933 50 140 0.9 0.9 0.00 0.17 0.02 94 1014.3
20260503195435 50 191 0.9 0.9 0.00 0.17 0.02 94 1014.2
20260503194935 50 67 0.9 4.3 0.00 0.17 0.02 94 1014.3
20260503194719 50 84 0.0 4.3 0.00 0.17 0.02 94 1014.3
20260503193934 50 169 0.9 1.7 0.00 0.17 0.02 94 1014.2
20260503193717 50 118 0.9 1.7 0.01 0.17 0.02 94 1014.3
20260503192934 50 121 0.0 1.7 0.01 0.17 0.02 94 1014.2
20260503192434 50 146 0.9 0.9 0.01 0.17 0.02 94 1014.2
20260503191935 50 155 0.9 0.9 0.01 0.17 0.02 94 1014.1
20260503191744 50 127 0.9 1.7 0.01 0.17 0.02 94 1014.0
20260503191739 50 129 0.9 1.7 0.01 0.17 0.02 94 1014.1
20260503190434 50 61 0.9 0.9 0.02 0.17 0.02 94 1014.0
20260503185934 50 155 0.9 0.9 0.02 0.17 0.02 94 1013.9
20260503185715 50 161 0.9 0.9 0.02 0.17 0.02 94 1013.9
20260503185218 50 140 0.9 0.9 0.02 0.17 0.02 94 1013.9
20260503184440 50 120 0.9 1.7 0.02 0.17 0.02 94 1014.0
20260503183933 50 113 0.9 1.7 0.02 0.17 0.02 94 1013.9
20260503183434 50 131 0.9 1.7 0.02 0.17 0.02 94 1013.9
20260503182934 50 32 0.9 1.7 0.02 0.17 0.02 94 1013.8
20260503182436 50 201 0.9 0.9 0.02 0.17 0.02 94 1013.8
20260503181934 50 155 0.9 1.7 0.02 0.17 0.02 94 1013.7
20260503181433 50 132 0.9 1.7 0.02 0.17 0.02 94 1013.8
20260503180932 50 115 0.9 0.9 0.02 0.17 0.02 93 1013.6
20260503180434 51 123 0.9 0.9 0.01 0.16 0.01 93 1013.6
20260503175933 51 108 0.9 1.7 0.01 0.16 0.00 93 1013.7
20260503175714 51 180 0.0 1.7 0.00 0.15 0.00 93 1013.9
20260503174933 51 116 0.9 0.9 0.00 0.15 0.00 93 1013.9
20260503174435 51 116 0.9 2.6 0.00 0.15 0.00 93 1013.9
20260503173934 51 147 0.0 2.6 0.00 0.15 0.00 93 1013.8
20260503173433 51 171 0.9 1.7 0.00 0.15 0.00 93 1013.9
20260503172933 51 152 0.9 0.9 0.00 0.15 0.00 93 1014.0
20260503172433 50 161 0.9 4.3 0.00 0.15 0.00 93 1014.0
20260503171933 50 167 0.9 4.3 0.00 0.15 0.00 93 1014.0
20260503171806 50 103 0.9 0.9 0.00 0.15 0.00 93 1014.1
20260503171800 50 176 0.0 0.9 0.00 0.15 0.00 93 1014.0
20260503170724 50 163 0.9 0.9 0.00 0.15 0.00 93 1014.1
20260503150435 49 120 0.0 0.9 0.00 0.15 0.00 92 1014.5
20260503140215 49 160 0.0 0.9 0.00 0.15 0.15 93 1015.1
20260503130934 50 139 0.0 1.7 0.00 0.15 0.15 94 1015.2
20260503130714 50 123 0.0 0.9 0.00 0.15 0.15 94 1015.2
20260503110418 51 139 0.0 1.7 0.12 0.14 0.13 93 1014.8
20260503080908 56 187 0.0 0.9 0.00 0.02 0.01 71 1013.5
20260503080416 56 174 0.0 0.9 0.00 0.02 0.01 71 1013.5
20260503072648 56 80 0.0 1.7 0.00 0.02 0.01 69 1013.5
20260503072144 56 161 0.0 1.7 0.00 0.02 0.01 70 1013.4
20260503071443 56 110 0.0 0.9 0.00 0.04 0.01 70 1013.3
20260503071427 56 110 0.0 0.0 0.00 0.04 0.01 70 1013.4
20260503070409 57 170 0.9 1.7 0.00 0.04 0.01 68 1013.3
20260503054651 59 146 0.9 4.3 0.00 0.10 0.01 66 1013.1
20260503053909 58 155 0.9 0.0 0.00 0.10 0.01 67 1013.1
20260503053407 58 97 0.9 0.9 0.00 0.10 0.01 66 1013.3
20260503052910 59 80 0.9 0.9 0.00 0.10 0.01 67 1013.3
20260503052407 58 160 0.9 0.9 0.00 0.10 0.01 68 1013.3
20260503051908 58 180 0.9 0.9 0.00 0.10 0.01 66 1013.3
20260503051724 60 222 0.9 3.5 0.00 0.10 0.01 64 1013.3
20260503051720 59 127 0.9 3.5 0.00 0.10 0.01 65 1013.4
20260503050407 60 88 0.9 0.9 0.00 0.10 0.01 65 1013.1
20260503045908 59 188 0.9 1.7 0.00 0.10 0.01 66 1013.1
20260503045409 59 112 0.9 1.7 0.00 0.10 0.01 65 1013.1
20260503044907 59 84 0.9 1.7 0.00 0.10 0.01 67 1013.1
20260503044408 59 194 0.9 1.7 0.00 0.10 0.01 67 1013.1
20260503043913 59 200 0.9 1.7 0.00 0.11 0.01 67 1011.6
20260503043406 59 162 0.9 1.7 0.00 0.11 0.01 67 1013.1
20260503042905 59 191 0.9 1.7 0.00 0.11 0.01 69 1013.1
20260503042406 58 123 0.9 1.7 0.00 0.11 0.01 70 1013.4
20260503042246 58 91 0.9 0.9 0.00 0.11 0.01 69 1013.4
20260503042242 58 159 0.9 0.9 0.00 0.11 0.01 68 1013.3
20260503042236 58 186 0.9 0.9 0.00 0.11 0.01 69 1013.3
20260503040407 58 167 0.9 0.9 0.00 0.11 0.01 67 1013.3
20260503035907 58 143 0.9 1.7 0.00 0.11 0.01 67 1013.3
20260503035500 58 171 0.9 1.7 0.00 0.11 0.01 68 1013.3
20260503035212 58 159 0.9 2.6 0.00 0.11 0.01 67 1013.5
20260503033907 58 95 0.9 0.9 0.00 0.11 0.01 69 1013.6
20260503033652 58 95 0.9 0.9 0.00 0.11 0.01 69 1013.7
20260503032912 57 202 0.9 0.9 0.00 0.11 0.01 69 1013.8
20260503032706 58 115 0.9 2.6 0.00 0.11 0.01 67 1012.4
20260503032118 59 231 0.9 2.6 0.00 0.11 0.01 65 1012.4
20260503031334 58 160 0.9 0.9 0.00 0.11 0.01 69 1013.7
20260503030835 57 86 0.9 0.9 0.00 0.11 0.01 67 1013.7
20260503030335 59 22 0.9 0.9 0.00 0.11 0.01 65 1013.8
20260503030116 60 178 0.9 1.7 0.00 0.11 0.01 65 1013.7
20260503025333 59 107 0.9 1.7 0.00 0.11 0.01 66 1013.8
20260503025120 60 126 0.9 1.7 0.00 0.11 0.01 64 1013.9
20260503024615 60 96 0.9 1.7 0.00 0.11 0.01 65 1013.8
20260503023833 59 227 0.9 1.7 0.00 0.11 0.01 66 1014.0
20260503023335 60 94 0.9 1.7 0.00 0.11 0.01 66 1014.1
20260503022835 60 117 0.9 1.7 0.00 0.11 0.01 67 1014.0
20260503022334 59 140 0.9 1.7 0.00 0.11 0.01 67 1014.0
20260503022119 58 186 0.9 1.7 0.00 0.11 0.01 69 1014.1
20260503021333 57 204 0.9 1.7 0.00 0.11 0.01 68 1014.1
20260503020834 58 107 0.9 0.9 0.00 0.11 0.01 68 1014.2
20260503020334 58 107 0.9 0.9 0.00 0.11 0.01 68 1014.3
20260503015834 58 127 0.9 1.7 0.00 0.11 0.01 70 1014.2
20260503015636 56 166 0.9 1.7 0.00 0.12 0.01 73 1014.2
20260503014833 56 142 0.9 1.7 0.00 0.12 0.01 71 1014.2
20260503014334 56 155 0.9 1.7 0.00 0.12 0.01 70 1014.3
20260503013834 56 86 0.9 1.7 0.00 0.12 0.01 69 1014.3
20260503013341 56 155 0.9 1.7 0.01 0.12 0.01 71 1014.3
20260503012833 57 98 0.9 1.7 0.01 0.12 0.01 69 1014.2
20260503012334 57 159 0.9 2.6 0.01 0.12 0.01 71 1014.2
20260503012113 57 172 1.7 2.6 0.01 0.12 0.01 72 1014.2
20260503011332 56 136 0.9 1.7 0.01 0.12 0.01 72 1014.1
20260503011140 56 113 0.9 3.5 0.01 0.12 0.01 71 1014.1
20260503011134 56 119 0.9 1.7 0.01 0.12 0.01 72 1014.1
20260503005835 56 142 0.9 3.5 0.01 0.12 0.01 72 1014.1
20260503005334 56 136 0.9 2.6 0.01 0.12 0.01 72 1014.0
20260503005116 56 119 0.9 1.7 0.01 0.12 0.01 72 1014.0
20260503004617 56 163 1.7 2.6 0.01 0.13 0.01 73 1014.0
20260503003832 55 167 1.7 2.6 0.01 0.13 0.01 74 1014.0
20260503003333 55 190 0.9 4.3 0.00 0.12 0.00 74 1014.0
20260503002834 55 86 0.9 4.3 0.00 0.12 0.00 76 1014.1
20260503002336 55 153 0.9 0.9 0.00 0.13 0.00 79 1014.2
20260503001841 54 215 0.9 0.9 0.00 0.13 0.00 80 1014.3
20260503001335 53 103 0.0 0.9 0.00 0.13 0.00 81 1012.6
20260503001118 53 115 0.0 0.9 0.00 0.13 0.00 82 1014.4
20260503000336 53 87 0.9 1.7 0.00 0.13 0.00 83 1014.5
20260502235836 52 146 0.9 2.6 0.00 0.13 0.00 83 1014.6
20260502235335 52 185 0.9 2.6 0.00 0.13 0.00 84 1014.6
20260502235118 52 123 0.9 0.9 0.00 0.13 0.00 85 1014.4
20260502234335 52 46 0.9 0.9 0.00 0.13 0.00 86 1014.4
20260502233835 52 169 0.0 0.9 0.00 0.13 0.00 86 1014.5
20260502233622 51 169 0.0 0.9 0.00 0.13 0.00 87 1014.5
20260502232837 51 103 0.9 0.9 0.00 0.13 0.00 87 1014.6
20260502232335 51 136 0.9 0.9 0.00 0.13 0.00 87 1014.6
20260502232122 51 221 0.9 0.9 0.00 0.13 0.00 88 1014.5
20260502231335 51 90 0.9 0.9 0.00 0.13 0.00 88 1014.5
20260502230834 50 186 0.0 0.9 0.00 0.13 0.00 88 1014.5
20260502230349 50 184 0.0 1.7 0.00 0.13 0.00 88 1014.5
20260502230122 50 123 0.0 1.7 0.00 0.13 0.00 88 1014.4
20260502225334 50 154 0.0 0.0 0.00 0.13 0.00 88 1014.4
20260502225122 50 188 0.0 0.0 0.00 0.13 0.00 88 1014.4
20260502224340 50 276 0.0 0.0 0.00 0.13 0.00 89 1014.4
20260502223835 50 276 0.0 0.0 0.00 0.13 0.00 89 1014.4
20260502223334 49 276 0.0 0.0 0.00 0.13 0.00 90 1014.4
20260502222835 49 276 0.0 0.9 0.00 0.13 0.00 90 1014.3
20260502222334 49 163 0.0 0.9 0.00 0.13 0.00 90 1014.2
20260502221837 49 156 0.0 0.9 0.00 0.13 0.00 90 1014.1
20260502221334 48 86 0.0 0.9 0.00 0.13 0.00 90 1014.1
20260502220837 48 126 0.0 0.9 0.00 0.13 0.00 90 1014.0